轨道通信卫星FM18星 (ORBCOMM FM18)

导读 | 星芒AI

ORBCOMM FM18 是一颗由 ORBCOMM 公司运营的低轨(LEO)卫星,属于其全球物联网通信网络的一部分。该卫星主要用于提供远程机器对机器(M2M)通信服务,支持物流、运输、能源和环境监测等行业。FM18 采用蜂窝卫星通信技术,运行在 137-152 MHz 和 401-403 MHz 频段,具备全球覆盖能力,能够实现低带宽数据传输。该卫星是 ORBCOMM 第二代卫星系统的一部分,旨在提升网络性能和可靠性。

基本信息
目录编号:
25414
目录名称:
ORBCOMM FM 18
国际标识:
1998-046B
轨道中心:
EARTH
卫星名称:
轨道通信卫星FM18星
卫星全名:
轨道通信卫星FM18星 (ORBCOMM FM18)
卫星状态:
在轨 (已飞行9946 天)
发射日期:
1998-08-02 UTC
国别 :
(ORB)
星等 :
--
轨道信息
数据来源 国际轨道数据
星历时间: 2025-10-25T17:49:24+0800
11小时前
查看轨道信息
半长轴: 7140.114km
偏心率: 0.0005621
轨道倾角: 44.992°
近地点辐角 243.190°
升交点赤经 276.784°
平近点角 116.838°
近地点: 757.965km
远地点: 765.993km
周期: 100.073分钟
每日圈数: 14.389481
详细信息
固有亮度:
8
最大亮度:
6.9
平衡模式:
三轴稳定
覆盖范围:
全球
运营商:
轨道通信公司
运营商所在国:
美国
制造商(研发单位):
轨道ATK公司
制造商所在国:
美国
使用方式:
暂无
卫星简介
轨道通信FM(Orbcomm FM)是一系列低地球轨道通信卫星,由美国卫星通信公司 Orbcomm运营。 截至2015年12月,已有63颗此类卫星绕地球运行。该卫星已退役。
2D轨道图
3D轨道图
轨道高度分析图
轨道倾角分析图
轨道综合分析图
查看轨道综合分析图